Farmington, NM

10:33 PM MST on February 12, 2016 (GMT -0700)
Mojave St & Butler Ave | | Change Station
CLOSE
Current Station
Personal Weather Station
Location: Farmington, NM
Elevation: 5413 ft
Nearby Weather Stations

Elev 5413 ft 36.74 °N, 108.20 °W | Updated 2 minutes ago

Clear
Clear
35.4 °F
Feels Like 33 °F
N
3.2
Wind Variable Wind from East

Today
High -- | Low -- °F
--% Chance of Precip.
Yesterday
High -- | Low -- °F
Precip. -- in
Pressure 30.38 in
Visibility 10.0 miles
Clouds Clear
Windchill 33 °F
Dew Point 32 °F
Humidity 87%
Rainfall 0.00 in
Snow Depth Not available.
7:04 AM 5:49 PM
Waxing Crescent, 27% visible
METAR KFMN 130453Z 04004KT 10SM CLR 01/M04 A3034 RMK AO2 SLP287 T00061039
Pressure 30.38 in
Visibility 10.0 miles
Clouds Clear
Windchill 33 °F
Dew Point 32 °F
Humidity 87%
Rainfall 0.00 in
Snow Depth Not available.
7:04 AM 5:49 PM
Waxing Crescent, 27% visible
METAR KFMN 130453Z 04004KT 10SM CLR 01/M04 A3034 RMK AO2 SLP287 T00061039

10-Day Weather Forecast

Almanac

Astronomy

Feb. 12, 2016 Rise Set
Actual Time
Civil Twilight
Nautical Twilight
Astronomical Twilight
Moon
Length of Visible Light
Length of Day
Tomorrow will be .
, % of the Moon is Illuminated

Today's Extremes

State Highs State Lows

Community

WunderPhotos

Upload Photos

1,892,508 photos uploaded!

WunderBlog® & News

Nearby

Air Quality

  Air Quality AQ Index Pollutant
Not available.

Snow Depth

Station Depth Elevation

Earthquake Activity

City Distance Mag. Time & Date
Minimum magnitude displayed is 2.5.

Coastal Water Temperatures

Place Temperature

Stations

Nearby Weather Stations

Station Location Temp. Windchill Dew Point Humidity Wind Precip. Elev Updated Type
                   

Watches & Warnings

There are currently no watches in effect.